Location: Karlovy Vary
(50.2170°N, 12.9000°E)
Time: 08:19:06
(UTC+02:00)

ISS - Visible Passes

Search period start: 20 October 2021 00:00
Search period end: 30 October 2021 00:00
Orbit: 417 x 423 km, 51.6° (Epoch: 20 October)

Date Brightness Start Highest point End Pass type
(mag) Time Alt. Az. Time Alt. Az. Time Alt. Az.
20 Oct -0.5 07:02:04 10° SSE 07:03:21 12° SE 07:04:38 10° ESE visible
22 Oct -1.5 07:02:29 10° SSW 07:05:20 25° SE 07:08:10 10° E visible
23 Oct -1.1 06:15:54 10° S 06:18:16 18° SE 06:20:36 10° E visible
24 Oct -0.8 05:29:50 10° SSE 05:31:12 12° SE 05:32:36 10° ESE visible
24 Oct -2.9 07:04:09 10° SW 07:07:26 51° SSE 07:10:44 10° ENE visible
25 Oct -2.4 06:17:45 14° SSW 06:20:15 36° SSE 06:23:24 10° E visible
26 Oct -2.0 05:32:47 25° SSE 05:33:05 26° SE 05:35:58 10° E visible
26 Oct -3.7 07:06:16 10° WSW 07:09:39 88° SSE 07:13:02 10° ENE visible
27 Oct -0.6 04:47:41 13° ESE 04:47:41 13° ESE 04:48:22 10° E visible
27 Oct -3.6 06:20:40 27° WSW 06:22:22 70° SSE 06:25:44 10° ENE visible
28 Oct -3.0 05:35:28 49° SE 05:35:28 49° SE 05:38:24 10° ENE visible
28 Oct -3.7 07:08:32 10° W 07:11:55 69° N 07:15:17 10° ENE visible
29 Oct -0.7 04:50:12 16° E 04:50:12 16° E 04:51:01 10° E visible
29 Oct -3.8 06:23:11 33° W 06:24:34 77° NNW 06:27:56 10° ENE visible
